French Village, MO

6:19 PM CST on February 14, 2016 (GMT -0600)
Farmington Regional

Weather History for KFAM - October, 2013

Change the Weather History Date:

Friday, October 11, 2013

  Actual Average (KCGI) Record (KCGI)
Temperature  
Mean Temperature 60 °F 59 °F  
Max Temperature 75 °F 72 °F 92 °F (1963)
Min Temperature 46 °F 46 °F 29 °F (1964)
Degree Days  
Heating Degree Days 4 7  
Month to date heating degree days 65  
Since 1 July heating degree days 114  
Cooling Degree Days 0 1  
Month to date cooling degree days 18  
Year to date cooling degree days 1440  
Growing Degree Days 10 (Base 50)    
Moisture  
Dew Point 54 °F    
Average Humidity 78    
Maximum Humidity 100    
Minimum Humidity 50    
Precipitation  
Precipitation 0.00 in 0.11 in 1.95 in (1969)
Month to date precipitation 1.27  
Year to date precipitation 35.60  
Sea Level Pressure  
Sea Level Pressure 30.03 in    
Wind  
Wind Speed 3 mph (South)    
Max Wind Speed 16 mph    
Max Gust Speed 20 mph    
Visibility 7 miles    
Events      
T = Trace of Precipitation, MM = Missing Value Source: NWS Daily Summary

Daily Weather History Graph

Daily Weather History Graph

Search for Another Location

Airport or City:

Trip Planner

Search our weather history database for the weather conditions in past years. The results will help you decide how hot, cold, wet, or windy it might be!

Date:

Astronomy

Oct. 11, 2013 Rise Set
Actual Time 7:06 AM CDT 6:29 PM CDT
Civil Twilight 6:40 AM CDT 6:55 PM CDT
Nautical Twilight 6:09 AM CDT 7:26 PM CDT
Astronomical Twilight 5:39 AM CDT 7:56 PM CDT
Moon 1:45 PM CDT (10/11) No Moon Set
Length of Visible Light 12h 15m
Length of Day
11h 22m
Waxing Crescent, 47% of the Moon is Illuminated
Oct 11
Waxing Crescent
Oct 11
First Quarter
Oct 18
Full
Oct 26
Last Quarter
Nov 3
New

Hourly Weather History & Observations

Time (CDT) Temp. Dew Point Humidity Pressure Visibility Wind Dir Wind Speed Gust Speed Precip Events Conditions
12:15 AM 53.6 °F 51.8 °F 94% 30.05 in 7.0 mi Calm Calm - N/A   Clear
12:35 AM 55.4 °F 53.6 °F 94% 30.04 in 1.0 mi Calm Calm - N/A   Clear
12:55 AM 51.8 °F 50.0 °F 94% 30.04 in 0.5 mi Calm Calm - N/A   Unknown
1:15 AM 51.8 °F 50.0 °F 94% 30.04 in 0.2 mi Calm Calm - N/A   Unknown
1:35 AM 51.8 °F 50.0 °F 94% 30.04 in 0.2 mi Calm Calm - N/A   Unknown
1:55 AM 51.8 °F 51.8 °F 100% 30.04 in 0.5 mi Calm Calm - N/A   Unknown
2:15 AM 51.8 °F 50.0 °F 94% 30.04 in 0.2 mi Calm Calm - N/A   Mostly Cloudy
2:35 AM 51.8 °F 48.2 °F 88% 30.03 in 0.2 mi Calm Calm - N/A   Mostly Cloudy
2:55 AM 50.0 °F 48.2 °F 94% 30.03 in 0.2 mi Calm Calm - N/A   Unknown
3:15 AM 51.8 °F 48.2 °F 88% 30.04 in 0.2 mi Calm Calm - N/A   Unknown
3:35 AM 51.8 °F 48.2 °F 88% 30.04 in 1.8 mi Calm Calm - N/A   Clear
3:55 AM 48.2 °F 46.4 °F 93% 30.05 in 0.8 mi Calm Calm - N/A   Unknown
4:15 AM 50.0 °F 48.2 °F 94% 30.05 in 0.8 mi Calm Calm - N/A   Mostly Cloudy
4:35 AM 50.0 °F 48.2 °F 94% 30.05 in 2.0 mi Calm Calm - N/A   Clear
4:55 AM 51.8 °F 48.2 °F 88% 30.05 in 0.2 mi Calm Calm - N/A   Mostly Cloudy
5:15 AM 48.2 °F 48.2 °F 100% 30.06 in 9.0 mi Calm Calm - N/A   Clear
5:35 AM 48.2 °F 46.4 °F 93% 30.06 in 8.0 mi Calm Calm - N/A   Clear
5:55 AM 48.2 °F 46.4 °F 93% 30.06 in 0.2 mi Calm Calm - N/A   Overcast
6:15 AM 48.2 °F 46.4 °F 93% 30.06 in 1.0 mi Calm Calm - N/A   Overcast
6:35 AM 46.4 °F 46.4 °F 100% 30.07 in 4.0 mi Calm Calm - N/A   Overcast
6:55 AM 48.2 °F 46.4 °F 93% 30.06 in 4.0 mi Calm Calm - N/A   Mostly Cloudy
7:15 AM 46.4 °F 46.4 °F 100% 30.06 in 0.8 mi Calm Calm - N/A   Overcast
7:35 AM 46.4 °F 44.6 °F 93% 30.06 in 0.2 mi Calm Calm - N/A   Overcast
7:55 AM 48.2 °F 46.4 °F 93% 30.07 in 0.2 mi Calm Calm - N/A   Overcast
8:15 AM 50.0 °F 48.2 °F 94% 30.07 in 0.2 mi Calm Calm - N/A   Overcast
8:35 AM 51.8 °F 51.8 °F 100% 30.07 in 0.5 mi Calm Calm - N/A   Mostly Cloudy
8:55 AM 55.4 °F 55.4 °F 100% 30.07 in 3.0 mi Calm Calm - N/A   Mostly Cloudy
9:15 AM 57.2 °F 57.2 °F 100% 30.07 in 5.0 mi SSE 4.6 mph - N/A   Partly Cloudy
9:35 AM 60.8 °F 59.0 °F 94% 30.07 in 7.0 mi Calm Calm - N/A   Clear
9:55 AM 60.8 °F 60.8 °F 100% 30.07 in 10.0 mi South 6.9 mph - N/A   Clear
10:15 AM 62.6 °F 60.8 °F 94% 30.07 in 10.0 mi South 6.9 mph - N/A   Clear
10:35 AM 64.4 °F 60.8 °F 88% 30.07 in 10.0 mi SSW 8.1 mph - N/A   Clear
10:55 AM 64.4 °F 60.8 °F 88% 30.07 in 10.0 mi South 9.2 mph - N/A   Clear
11:15 AM 66.2 °F 60.8 °F 83% 30.07 in 10.0 mi South 10.4 mph - N/A   Partly Cloudy
11:35 AM 71.6 °F 57.2 °F 60% 30.07 in 10.0 mi SSW 8.1 mph 17.3 mph N/A   Partly Cloudy
11:55 AM 71.6 °F 57.2 °F 60% 30.06 in 10.0 mi South 10.4 mph - N/A   Partly Cloudy
12:15 PM 73.4 °F 57.2 °F 57% 30.05 in 10.0 mi South 12.7 mph - N/A   Partly Cloudy
12:35 PM 73.4 °F 57.2 °F 57% 30.05 in 10.0 mi South 6.9 mph - N/A   Scattered Clouds
12:55 PM 73.4 °F 57.2 °F 57% 30.04 in 10.0 mi South 3.5 mph - N/A   Partly Cloudy
1:15 PM 73.4 °F 57.2 °F 57% 30.03 in 10.0 mi SSE 9.2 mph - N/A   Partly Cloudy
1:35 PM 75.2 °F 57.2 °F 53% 30.02 in 10.0 mi SSE 6.9 mph - N/A   Partly Cloudy
1:55 PM 75.2 °F 57.2 °F 53% 30.02 in 10.0 mi South 9.2 mph - N/A   Scattered Clouds
2:15 PM 73.4 °F 57.2 °F 57% 30.01 in 10.0 mi South 12.7 mph - N/A   Scattered Clouds
2:35 PM 75.2 °F 57.2 °F 53% 30.00 in 10.0 mi South 10.4 mph - N/A   Partly Cloudy
2:55 PM 75.2 °F 57.2 °F 53% 30.00 in 10.0 mi South 11.5 mph - N/A   Partly Cloudy
3:15 PM 75.2 °F 57.2 °F 53% 29.99 in 10.0 mi South 11.5 mph 18.4 mph N/A   Clear
3:35 PM 75.2 °F 55.4 °F 50% 29.98 in 10.0 mi South 12.7 mph 19.6 mph N/A   Clear
3:55 PM 75.2 °F 55.4 °F 50% 29.98 in 10.0 mi SE 15.0 mph - N/A   Clear
4:15 PM 75.2 °F 55.4 °F 50% 29.97 in 10.0 mi SSE 16.1 mph - N/A   Clear
4:35 PM 75.2 °F 55.4 °F 50% 29.97 in 10.0 mi SSE 13.8 mph - N/A   Clear
4:55 PM 75.2 °F 55.4 °F 50% 29.98 in 10.0 mi South 12.7 mph - N/A   Clear
5:15 PM 73.4 °F 55.4 °F 53% 29.98 in 10.0 mi South 10.4 mph 17.3 mph N/A   Clear
5:35 PM 73.4 °F 55.4 °F 53% 29.98 in 10.0 mi South 11.5 mph - N/A   Clear
5:55 PM 71.6 °F 55.4 °F 57% 29.98 in 10.0 mi South 6.9 mph - N/A   Clear
6:15 PM 71.6 °F 55.4 °F 57% 29.97 in 10.0 mi SSE 6.9 mph - N/A   Clear
6:35 PM 69.8 °F 55.4 °F 60% 29.97 in 10.0 mi SSE 5.8 mph - N/A   Clear
6:55 PM 66.2 °F 55.4 °F 68% 29.97 in 10.0 mi SSE 3.5 mph - N/A   Clear
7:15 PM 66.2 °F 55.4 °F 68% 29.98 in 10.0 mi SSE 4.6 mph - N/A   Clear
7:35 PM 64.4 °F 55.4 °F 73% 29.98 in 10.0 mi South 3.5 mph - N/A   Clear
7:55 PM 64.4 °F 55.4 °F 73% 29.99 in 10.0 mi Calm Calm - N/A   Clear
8:15 PM 66.2 °F 55.4 °F 68% 29.99 in 10.0 mi Calm Calm - N/A   Clear
8:35 PM 64.4 °F 55.4 °F 73% 29.99 in 10.0 mi Calm Calm - N/A   Clear
8:55 PM 64.4 °F 55.4 °F 73% 29.99 in 10.0 mi Calm Calm - N/A   Clear
9:15 PM 62.6 °F 55.4 °F 77% 29.99 in 10.0 mi Calm Calm - N/A   Clear
9:35 PM 60.8 °F 53.6 °F 77% 30.00 in 10.0 mi Calm Calm - N/A   Clear
9:55 PM 62.6 °F 55.4 °F 77% 30.00 in 10.0 mi Calm Calm - N/A   Clear
10:15 PM 62.6 °F 55.4 °F 77% 30.00 in 10.0 mi Calm Calm - N/A   Clear
10:35 PM 60.8 °F 55.4 °F 82% 30.01 in 10.0 mi Calm Calm - N/A   Clear
10:55 PM 59.0 °F 55.4 °F 88% 30.01 in 10.0 mi Calm Calm - N/A   Clear
11:15 PM 59.0 °F 55.4 °F 88% 30.01 in 10.0 mi Calm Calm - N/A   Clear
11:35 PM 59.0 °F 55.4 °F 88% 30.01 in 10.0 mi Calm Calm - N/A   Clear
11:55 PM 57.2 °F 53.6 °F 88% 30.01 in 10.0 mi Calm Calm - N/A   Clear